Nashua, NH

6:24 AM EDT on October 19, 2019 (GMT -0400)
Boire

Weather History for KASH - August, 2019

Change the Weather History Date:

Wednesday, August 28, 2019

  Actual Average Record
Temperature  
Mean Temperature 72 °F -  
Max Temperature 82 °F 79 °F 100 °F (1948)
Min Temperature 63 °F 56 °F 39 °F (1957)
Cooling Degree Days 7    
Growing Degree Days 22 (Base 50)    
Moisture  
Dew Point 64 °F    
Average Humidity 87    
Maximum Humidity 100    
Minimum Humidity 45    
Precipitation  
Precipitation 0.47 in - - ()
Sea Level Pressure  
Sea Level Pressure 29.92 in    
Wind  
Wind Speed 3 mph ()    
Max Wind Speed 12 mph    
Max Gust Speed 16 mph    
Visibility 7.1 miles    
Events Rain    
Averages and records for this station are not official NWS values.
T = Trace of Precipitation, MM = Missing Value Source: Averaged Metar Reports

Daily Weather History Graph

Daily Weather History Graph

Search for Another Location

Airport or City:

Astronomy

Aug. 28, 2019 Rise Set
Actual Time 6:06 AM EDT 7:27 PM EDT
Civil Twilight 5:36 AM EDT 7:57 PM EDT
Nautical Twilight 5:01 AM EDT 8:32 PM EDT
Astronomical Twilight 4:23 AM EDT 9:09 PM EDT
Moon 3:30 AM EDT (8/28) 6:40 PM EDT (8/28)
Length of Visible Light 14h 20m
Length of Day
13h 21m
Waning Crescent, 5% of the Moon is Illuminated
Aug 28
Waning Crescent
Aug 30
New
Sep 5
First Quarter
Sep 14
Full
Sep 21
Last Quarter

Hourly Weather History & Observations

Time (EDT) Temp. Heat Index Dew Point Humidity Pressure Visibility Wind Dir Wind Speed Gust Speed Precip Events Conditions
12:56 AM 64.9 °F - 60.1 °F 84% 30.03 in 10.0 mi Variable 3.5 mph - N/A   Overcast
1:56 AM 64.9 °F - 61.0 °F 87% 30.02 in 10.0 mi Calm Calm - N/A   Overcast
2:56 AM 64.9 °F - 61.0 °F 87% 30.01 in 10.0 mi Calm Calm - N/A   Overcast
3:56 AM 64.9 °F - 61.0 °F 87% 29.99 in 10.0 mi SSE 3.5 mph - N/A   Overcast
4:56 AM 64.0 °F - 61.0 °F 90% 29.99 in 10.0 mi Calm Calm - N/A   Overcast
5:56 AM 64.0 °F - 61.0 °F 90% 29.99 in 10.0 mi Calm Calm - N/A   Overcast
6:56 AM 63.0 °F - 61.0 °F 93% 30.00 in 10.0 mi Variable 3.5 mph - N/A   Mostly Cloudy
7:56 AM 66.0 °F - 61.0 °F 84% 29.99 in 10.0 mi Variable 4.6 mph - N/A   Clear
8:56 AM 70.0 °F - 61.0 °F 73% 29.98 in 10.0 mi Calm Calm - N/A   Clear
9:56 AM 72.0 °F - 62.1 °F 71% 29.98 in 10.0 mi SE 4.6 mph - N/A   Clear
10:56 AM 75.9 °F - 62.1 °F 62% 29.97 in 10.0 mi Variable 4.6 mph - N/A   Scattered Clouds
11:56 AM 77.0 °F - 62.1 °F 60% 29.95 in 10.0 mi SSE 6.9 mph - N/A   Mostly Cloudy
12:56 PM 78.1 °F - 57.0 °F 48% 29.94 in 10.0 mi Variable 5.8 mph - N/A   Mostly Cloudy
1:56 PM 81.0 °F 81.1 °F 57.9 °F 45% 29.92 in 10.0 mi SE 8.1 mph - N/A   Overcast
2:56 PM 78.1 °F - 61.0 °F 56% 29.90 in 10.0 mi SSE 4.6 mph - N/A   Overcast
3:56 PM 72.0 °F - 66.9 °F 84% 29.90 in 5.0 mi SSE 8.1 mph 16.1 mph 0.00 in Rain Light Rain
4:13 PM 71.6 °F - 69.8 °F 94% 29.89 in 6.0 mi SE 11.5 mph - 0.01 in Rain Light Rain
4:29 PM 69.8 °F - 69.8 °F 100% 29.89 in 6.0 mi ESE 11.5 mph - 0.01 in   Overcast
4:56 PM 68.0 °F - 66.9 °F 96% 29.90 in 3.0 mi SE 8.1 mph - 0.02 in Rain Light Rain
5:38 PM 66.2 °F - 66.2 °F 100% 29.87 in 3.0 mi East 6.9 mph - 0.06 in Rain Rain
5:56 PM 66.0 °F - 66.0 °F 100% 29.88 in 3.0 mi East 5.8 mph - 0.10 in Rain Rain
6:00 PM 66.2 °F - 66.2 °F 100% 29.86 in 3.0 mi East 5.8 mph - 0.00 in Rain Rain
6:56 PM 66.0 °F - 66.0 °F 100% 29.87 in 3.0 mi East 4.6 mph - 0.17 in Rain Rain
7:56 PM 66.0 °F - 66.0 °F 100% 29.86 in 4.0 mi Variable 4.6 mph - 0.05 in Rain Light Rain
8:56 PM 66.0 °F - 66.0 °F 100% 29.86 in 4.0 mi NNW 3.5 mph - 0.04 in Rain Heavy Rain
9:37 PM 64.4 °F - 64.4 °F 100% 29.84 in 2.5 mi NNW 4.6 mph - N/A Rain Light Rain
9:56 PM 64.9 °F - 64.9 °F 100% 29.85 in 6.0 mi North 3.5 mph - N/A Rain Heavy Rain
10:56 PM 64.9 °F - 64.9 °F 100% 29.86 in 6.0 mi WNW 4.6 mph - 0.04 in Rain Heavy Rain
11:09 PM 64.4 °F - 64.4 °F 100% 29.84 in 2.5 mi North 3.5 mph - 0.01 in Rain Heavy Rain
11:22 PM 64.4 °F - 64.4 °F 100% 29.83 in 4.0 mi NW 3.5 mph - 0.02 in Rain Heavy Rain
11:45 PM 64.4 °F - 64.4 °F 100% 29.83 in 10.0 mi NW 3.5 mph - 0.04 in Rain Light Rain
11:56 PM 64.9 °F - 64.9 °F 100% 29.84 in 7.0 mi Calm Calm - 0.05 in Rain Heavy Rain